Location: Newark
(33.4133°N, 82.3847°W)
Time: 20:36:05
(UTC+00:00)

Hubble Space Telescope - Pass Details

Date: 03 February 2020
Orbit: 536 x 540 km, 28.5° (Epoch: 23 February)

Event Time Altitude Azimuth Distance (km) Brightness Sun altitude
Exits shadow 11:16:10 18° 242° (WSW) 1,326 2.3 -14.6°
Maximum altitude 11:18:47 41° 179° (S) 772 1.6 -14.1°
Drops below altitude 10° 11:22:40 10° 108° (ESE) 1,778 4.9 -13.3°
Sets 11:25:00 0° 101° (ESE) 2,668 6.5 -12.8°
